Wind_Speed
17 19 22 21 20 19 19 21 22 22 21 21 21 22 22 22 21 20 21 21 21 20 19 19 18 17 17 17 16 16 15 15 15 15 15 15 16 15 15 14 14 14 14 15 15 15 16 15 16 16 17 17 16 17 18 18 19 21 22 22 22 22 23 24 24 23 23 24 25 26 25 24 24 24 23 23 24 23 23 24 24 24 25 23 19
18 18 21 21 20 19 19 21 22 22 21 22 21 22 23 22 21 21 21 22 21 21 19 19 18 18 17 17 16 16 15 15 15 15 15 15 15 14 14 13 13 14 15 15 15 15 15 15 15 15 15 15 15 17 17 17 18 20 21 22 22 21 22 23 22 23 23 25 26 26 26 25 24 24 23 23 24 24 24 23 24 24 24 22 19
19 17 20 21 19 19 19 22 23 22 22 21 21 22 23 23 22 21 22 22 22 21 20 19 18 18 18 17 16 15 15 16 16 15 15 14 14 13 13 13 14 14 14 15 15 15 15 15 14 14 14 14 15 15 14 15 18 21 21 21 21 19 20 21 21 21 21 23 25 25 25 25 24 22 22 22 22 23 22 22 22 22 22 20 19
19 17 19 20 18 18 19 22 23 23 22 21 22 23 24 24 22 22 22 22 22 21 20 19 18 17 18 17 16 15 15 15 15 14 14 14 13 13 13 14 14 14 14 15 15 15 15 15 15 14 14 13 14 14 13 15 19 21 21 19 20 19 20 21 20 20 21 21 20 23 24 23 23 21 21 22 22 22 21 21 21 20 19 19 19
19 17 18 19 18 17 19 21 23 23 23 22 22 23 24 24 23 22 22 22 22 22 20 18 17 17 18 17 17 16 16 15 14 14 14 13 13 13 13 13 13 13 13 14 14 14 15 15 15 15 14 13 13 13 12 16 20 20 19 18 18 18 20 20 18 19 19 17 19 22 21 21 21 20 20 20 20 19 19 20 20 19 17 16 18
18 17 17 17 16 17 18 21 23 23 23 23 23 23 24 24 23 22 22 23 23 22 19 18 17 17 18 18 17 17 17 16 15 13 13 13 13 14 13 13 13 13 13 13 13 13 14 14 14 14 14 14 13 12 12 17 20 18 16 17 17 16 16 16 15 15 15 15 18 19 17 18 19 18 19 19 19 18 17 19 21 20 18 16 17
18 17 16 17 16 17 19 21 23 23 23 23 23 23 24 24 24 23 22 24 24 22 19 18 17 18 18 18 17 17 17 16 15 13 13 12 13 15 13 12 12 12 12 12 12 12 13 13 13 14 13 13 12 12 12 16 18 16 16 17 16 14 12 10 8 7 10 9 9 13 16 17 17 18 19 19 19 19 18 18 20 20 19 18 18
18 16 16 16 15 17 20 21 22 23 23 23 24 24 25 25 24 23 23 25 23 20 19 18 17 18 19 18 17 16 16 17 16 13 12 11 13 14 13 12 12 11 11 11 11 11 11 12 12 12 12 12 11 11 11 13 16 16 17 18 16 14 12 11 9 8 9 7 6 12 16 15 15 18 18 17 18 18 19 17 17 18 19 18 18
18 17 16 15 15 19 21 21 22 23 23 24 24 24 25 25 24 24 25 24 21 18 18 17 17 19 19 18 16 15 16 18 16 15 13 11 14 14 12 12 12 11 11 10 10 10 10 10 10 10 11 11 11 10 10 11 15 17 17 18 18 18 18 18 18 17 17 16 18 18 16 15 15 16 15 16 17 17 18 19 18 18 18 18 17
18 18 16 14 16 20 21 22 23 23 24 24 24 23 24 25 24 24 25 22 19 18 18 17 17 19 18 17 16 15 16 18 17 15 13 12 14 14 12 12 12 11 10 10 10 9 8 9 9 9 10 10 11 10 10 12 16 17 17 18 18 18 17 16 17 17 16 17 19 18 17 17 16 15 15 15 15 16 17 19 19 18 18 17 17
18 17 16 15 18 21 22 23 24 24 24 24 23 23 23 23 23 24 24 21 19 18 17 16 17 18 18 17 15 14 15 17 17 15 14 13 14 13 13 13 12 11 10 9 9 9 8 9 8 8 9 9 10 11 11 15 19 19 18 16 14 12 10 11 13 16 16 16 17 16 17 17 16 16 15 14 15 17 17 17 18 19 18 18 18
17 18 17 17 20 22 22 23 24 24 24 24 23 23 23 22 22 22 21 20 18 17 16 16 17 18 18 16 15 15 16 17 17 16 15 14 13 13 13 13 11 10 10 9 9 9 8 8 7 7 8 8 9 12 15 18 21 19 15 11 8 7 9 12 14 16 17 16 17 16 17 16 16 16 15 15 16 17 16 16 17 18 18 18 18
19 20 18 17 20 22 22 23 24 24 24 24 23 23 23 22 22 21 19 18 17 15 15 16 17 17 17 17 16 16 16 17 17 16 15 14 13 13 13 13 11 10 9 9 9 8 7 6 6 6 7 8 9 12 16 18 18 15 12 9 7 9 12 15 15 16 17 16 16 16 17 17 16 15 15 16 16 16 15 16 17 17 17 17 18
19 20 18 17 19 21 22 23 23 23 23 24 23 23 23 22 21 20 19 18 16 15 16 16 16 17 17 17 17 16 15 16 17 16 16 14 12 12 13 13 11 10 9 8 8 7 6 5 5 5 6 7 8 12 15 15 14 13 11 10 10 10 11 15 16 16 17 16 17 17 17 16 16 15 15 15 15 15 15 17 17 17 17 17 17
18 17 18 18 18 20 21 23 23 23 23 23 23 23 23 22 21 21 19 17 17 17 17 16 16 17 16 16 17 15 13 15 16 16 16 14 12 12 13 12 10 10 9 8 7 5 5 4 5 6 6 7 8 10 14 14 13 13 12 11 11 12 12 15 16 16 17 16 16 16 16 16 15 14 14 15 15 15 16 16 17 17 17 17 16
19 17 18 18 19 19 20 21 22 23 23 24 23 23 23 22 22 20 19 18 19 19 17 16 16 16 16 16 16 14 13 14 15 15 15 14 12 12 12 11 10 10 8 7 6 4 4 5 6 6 7 8 9 10 12 15 14 12 12 13 13 14 15 16 17 16 16 15 15 15 15 15 14 14 14 15 14 15 15 16 17 17 16 16 16
20 19 18 19 19 19 18 19 20 21 22 22 23 23 22 21 21 19 19 20 20 18 16 16 16 16 16 16 15 14 15 14 14 15 15 14 12 11 10 10 9 8 7 5 4 5 6 6 6 6 8 9 10 10 11 13 14 14 15 17 18 17 17 17 18 17 16 15 15 15 14 14 14 14 14 14 14 15 15 15 15 16 15 16 16
19 19 18 18 19 18 18 18 19 19 20 21 21 22 22 21 20 20 20 20 18 17 16 16 16 16 16 16 16 15 16 15 14 15 15 14 12 11 10 9 8 7 6 4 4 6 7 6 6 7 9 10 10 11 12 15 16 17 18 19 18 17 18 18 17 17 16 14 14 14 14 14 13 13 13 13 14 14 14 14 14 15 15 15 15
19 19 18 17 18 18 18 19 19 18 19 19 20 21 21 20 20 20 20 18 17 16 16 16 16 15 15 15 16 16 16 15 15 15 15 14 13 11 9 8 7 7 6 5 5 7 7 6 7 8 9 10 11 14 16 18 18 17 16 16 15 15 16 17 17 16 15 14 13 12 12 13 13 13 13 13 13 14 14 14 14 14 15 15 15
20 21 20 18 17 18 18 19 20 20 20 19 19 21 21 20 20 20 19 17 16 16 15 15 15 14 13 14 15 16 16 15 14 14 14 14 13 12 10 9 8 7 6 5 6 7 6 6 8 8 9 10 12 16 17 16 15 14 14 14 14 16 16 16 16 15 14 13 13 12 11 13 13 12 12 12 13 13 14 14 14 14 14 14 14
21 22 21 21 19 19 19 20 21 21 21 20 19 20 20 20 19 19 18 17 16 15 15 14 14 13 13 13 13 14 16 15 13 13 13 14 14 13 12 10 9 8 6 6 7 7 7 6 8 8 9 10 12 15 15 14 14 13 14 14 13 15 15 15 15 15 15 15 14 14 13 13 12 11 11 11 12 13 13 13 13 14 14 14 14
20 21 21 22 22 21 20 21 21 22 21 20 20 20 21 19 18 18 17 16 15 14 14 13 13 13 13 12 11 13 15 15 15 14 13 14 14 13 12 11 11 9 7 7 7 7 7 7 7 7 9 10 12 14 13 12 12 11 11 11 11 13 13 13 15 16 15 16 17 16 13 12 11 10 11 11 12 12 12 13 13 14 14 14 14
20 21 22 24 23 23 23 22 22 23 22 21 21 21 21 19 18 18 16 15 15 13 13 12 13 13 14 14 13 14 14 14 15 13 12 13 13 12 11 11 10 10 9 8 8 8 7 6 6 7 8 10 11 12 11 11 10 10 9 10 10 10 13 14 16 16 14 14 15 16 13 11 10 9 10 11 11 12 12 12 13 13 13 13 13
21 21 22 23 23 23 23 22 22 24 23 21 21 21 22 20 18 18 16 16 15 13 13 12 13 14 15 16 14 14 14 14 13 13 12 13 12 11 10 9 8 10 10 9 9 10 8 7 7 6 8 10 9 7 7 7 6 7 7 8 8 9 12 15 17 17 15 13 13 14 14 11 10 9 9 10 10 11 12 12 12 12 12 12 12
20 20 22 23 21 23 23 21 23 24 23 21 21 21 21 19 17 18 16 17 16 14 14 14 15 15 17 17 14 14 15 15 14 14 14 13 12 11 10 9 7 8 9 9 10 12 10 8 7 7 8 9 8 9 8 7 4 3 3 4 6 8 10 13 16 15 13 12 13 13 13 12 10 10 9 10 10 10 11 11 12 12 12 11 11
18 18 18 16 13 17 16 14 19 22 19 18 20 21 19 17 17 17 17 16 16 16 16 15 15 16 18 17 15 16 17 16 15 14 14 12 11 11 10 8 6 7 9 9 9 11 11 8 8 7 8 9 9 11 12 9 5 4 5 7 6 8 11 12 13 11 10 12 14 13 12 11 11 11 10 10 10 10 11 11 12 12 11 11 11
17 13 9 9 10 14 13 9 12 12 9 12 18 20 18 17 17 19 19 18 17 18 17 15 15 15 16 16 15 17 18 17 16 15 15 13 11 10 9 7 7 8 10 9 8 10 12 9 9 9 8 9 9 10 12 10 7 8 9 7 5 8 11 11 11 9 9 12 14 13 12 11 11 12 11 11 10 11 11 11 12 12 12 12 12
11 11 9 10 15 18 16 12 12 7 8 10 15 17 15 15 17 19 20 19 17 16 17 17 16 15 15 15 15 16 18 17 16 15 15 15 13 11 10 9 9 9 10 11 10 10 12 11 11 11 10 11 11 10 11 11 9 9 8 5 5 9 11 12 13 12 10 12 14 13 12 11 10 11 11 11 10 11 11 11 12 13 13 13 13
15 15 10 15 17 17 14 12 14 13 13 13 15 14 12 12 15 19 17 16 15 12 15 18 18 15 14 16 16 17 19 18 17 15 15 16 14 13 13 12 11 10 10 10 11 11 11 12 11 12 11 11 13 11 11 11 9 8 7 6 7 8 12 15 15 14 11 12 14 13 12 12 11 10 10 10 10 10 11 12 13 13 12 12 13
19 14 14 16 16 16 14 12 14 15 16 17 18 14 12 11 12 17 15 14 14 11 13 16 17 16 15 17 18 18 20 19 19 17 16 16 14 14 13 12 10 10 10 9 11 11 11 12 11 11 10 12 13 10 10 10 10 9 5 5 7 9 14 16 16 15 12 13 14 13 12 12 12 10 9 10 11 11 12 13 12 11 10 10 11
18 12 13 16 17 16 15 14 14 14 16 19 19 16 15 14 13 15 15 15 16 13 13 13 15 17 16 18 19 19 20 20 19 17 16 15 13 12 8 8 9 9 10 10 11 11 11 11 9 11 10 10 11 9 9 9 9 10 7 8 7 9 15 18 17 15 13 13 13 12 12 12 11 10 10 11 11 11 12 12 10 9 9 8 8
15 12 13 16 16 15 15 18 15 14 19 20 17 16 16 16 15 15 15 18 18 16 15 14 16 18 18 20 20 20 20 19 19 17 15 14 12 10 7 8 10 9 9 9 9 9 10 9 9 11 7 6 11 12 10 9 8 9 8 8 7 9 14 17 18 16 14 14 12 10 12 11 10 10 11 11 10 11 11 9 8 7 7 7 6
12 11 11 15 14 12 14 17 16 15 20 19 17 17 18 18 18 17 16 18 19 16 15 17 19 19 20 21 20 20 20 19 18 16 14 12 10 9 9 10 10 10 10 9 9 9 9 9 10 9 4 6 13 14 13 11 9 9 8 8 9 10 14 16 17 17 17 16 13 11 12 11 10 10 10 9 8 8 8 7 7 6 6 6 6
11 12 12 15 13 11 13 17 17 15 18 19 18 19 19 20 19 18 15 16 17 16 15 17 18 20 21 22 21 20 20 18 17 16 14 11 10 10 11 10 11 11 10 10 9 8 8 8 8 6 5 9 11 12 12 11 9 8 8 8 12 14 13 15 17 17 16 16 15 14 14 13 10 10 8 7 7 7 7 7 6 6 6 6 6
13 15 14 13 13 13 12 17 18 15 18 20 17 16 17 18 18 18 16 14 15 16 18 19 18 20 21 21 21 20 18 15 14 16 15 13 13 12 12 12 11 9 8 8 9 8 6 7 7 4 6 9 10 10 9 9 9 9 7 6 12 16 15 14 15 16 16 14 15 15 15 13 10 9 8 7 7 7 7 7 7 6 6 6 6
16 16 15 14 14 15 13 16 17 13 16 19 16 14 15 16 17 19 19 18 17 17 20 21 20 21 22 21 21 20 19 16 15 16 14 14 15 14 14 14 11 8 7 9 10 8 7 8 7 5 6 9 11 11 8 9 10 10 9 7 9 13 16 15 14 16 16 12 12 13 13 11 9 9 8 7 8 7 7 7 7 6 6 6 6
16 15 16 18 16 16 17 16 15 12 13 16 16 15 15 16 17 17 19 20 19 17 19 22 22 23 24 24 22 20 20 19 18 16 13 13 13 12 13 13 11 8 8 9 8 6 7 7 7 5 6 9 13 11 9 10 11 12 12 10 9 12 16 16 14 15 14 12 12 11 11 10 8 8 8 8 8 8 8 8 7 6 6 6 6
14 15 16 18 17 17 17 14 13 12 11 13 14 14 15 15 15 16 17 17 17 16 19 22 23 25 25 24 23 22 21 20 19 16 13 12 11 11 11 10 10 9 10 9 6 6 6 5 7 6 5 10 12 11 10 10 10 11 11 12 11 13 14 14 13 12 12 13 13 11 10 10 9 8 8 9 8 8 8 8 8 7 7 6 5
15 16 16 18 17 17 16 13 13 12 12 13 13 14 14 13 15 15 14 15 16 16 18 20 22 25 24 23 22 22 21 19 18 16 14 11 10 11 10 9 10 10 10 8 4 6 6 4 6 7 6 10 10 10 12 11 10 10 10 11 12 13 13 12 11 12 12 12 13 12 11 11 10 9 9 8 8 8 7 8 9 8 9 9 8
18 17 17 20 19 18 19 16 14 13 13 14 14 13 13 14 16 15 13 15 17 16 18 19 21 23 22 20 20 21 20 19 17 15 14 13 12 12 9 9 11 11 10 8 5 6 8 7 7 8 8 10 10 10 13 13 13 12 10 12 12 11 11 10 9 11 12 12 12 12 12 12 10 9 9 9 8 8 7 8 8 9 11 12 11
17 17 17 19 19 18 20 19 16 15 14 14 14 13 13 14 15 15 14 15 16 16 17 17 20 22 20 18 20 20 19 18 17 16 15 15 14 13 12 12 12 12 11 8 5 6 9 9 7 8 8 10 11 11 14 16 16 14 11 11 11 10 9 10 10 9 9 10 11 11 11 11 9 7 8 8 9 8 7 7 8 7 10 12 13
17 18 17 16 18 19 20 20 19 16 15 15 15 14 14 13 14 15 14 14 15 15 17 18 20 22 19 18 21 21 20 19 18 18 16 14 15 15 14 13 11 11 11 8 6 7 11 10 9 10 10 10 12 12 14 15 13 12 12 10 9 8 8 9 8 8 8 9 9 8 9 9 9 8 7 8 9 8 8 8 8 8 8 11 11
15 16 17 16 18 20 20 20 20 17 16 15 15 15 13 12 12 13 13 12 13 14 16 18 20 20 19 20 21 21 20 19 18 17 15 13 15 17 15 13 11 10 9 8 9 8 13 10 11 12 12 11 11 12 15 12 11 14 13 7 4 4 4 5 5 7 9 8 7 6 7 10 10 9 10 10 11 10 9 9 9 10 11 11 11
18 17 17 17 18 19 20 21 20 18 17 16 15 15 14 12 11 12 12 11 12 13 14 16 18 18 19 20 20 20 18 18 17 14 13 13 15 16 14 12 11 10 7 6 8 9 12 9 10 12 14 14 11 12 14 11 13 14 8 4 4 4 2 3 5 7 9 8 7 7 8 10 9 10 11 10 11 12 10 10 10 12 13 12 11
22 19 15 14 16 18 19 20 21 19 18 17 16 16 16 15 14 12 12 11 11 13 14 15 16 16 19 21 21 20 17 16 15 13 13 13 13 13 11 10 11 9 6 5 8 11 10 10 12 13 15 15 13 12 12 13 14 10 5 4 4 2 2 6 6 5 6 6 8 9 10 12 11 10 10 10 11 11 11 12 12 12 13 13 14
15 13 9 9 11 16 19 19 22 21 19 18 17 18 18 17 17 15 13 13 12 11 13 14 16 16 19 21 20 19 17 16 15 14 14 12 12 12 11 10 10 8 7 6 7 11 12 11 12 14 15 15 15 14 14 16 13 7 6 5 2 2 7 10 6 3 3 6 12 14 12 11 12 11 11 12 11 11 11 13 13 13 13 13 13
11 12 13 12 11 14 19 20 21 22 20 20 19 19 19 18 18 16 14 14 13 12 12 14 16 17 18 18 17 16 15 14 13 13 13 11 11 12 11 9 8 7 8 8 6 8 12 12 11 13 15 15 16 16 16 18 13 6 6 4 3 7 12 12 6 4 4 5 11 15 11 7 8 12 14 13 13 12 12 13 13 13 12 11 10
15 19 23 21 16 15 18 20 21 22 21 21 20 19 19 19 17 16 15 14 13 13 13 14 15 15 14 13 13 13 12 10 10 11 11 9 10 12 11 10 11 9 8 8 6 7 11 13 12 12 14 16 17 16 17 19 15 9 7 5 6 10 12 11 9 9 5 4 7 9 9 7 10 14 15 14 13 12 12 13 14 14 13 12 11
20 23 25 26 23 19 18 19 21 21 21 21 21 19 18 18 18 17 16 14 13 13 14 14 13 12 12 11 11 12 11 10 10 11 10 8 9 10 10 10 11 9 7 8 7 8 10 12 13 13 14 17 17 15 17 19 17 13 9 8 10 12 11 9 10 11 7 5 5 5 7 8 10 13 14 13 11 10 10 12 14 15 14 13 11
23 25 25 23 24 23 21 20 20 20 21 21 21 19 18 18 17 18 17 15 15 15 14 14 13 13 12 11 12 12 12 11 12 11 10 9 8 8 8 9 9 8 8 8 8 9 10 12 13 13 13 15 16 17 18 19 18 15 12 11 12 12 10 7 8 11 8 4 4 6 9 9 7 8 10 11 10 8 9 10 12 14 14 13 11
22 23 22 19 21 23 22 21 19 19 22 22 21 20 18 18 17 17 17 17 18 16 15 14 14 15 13 10 8 8 9 10 10 10 9 9 9 8 8 8 9 9 8 7 8 9 10 12 14 14 13 14 15 16 16 17 17 15 12 11 13 13 9 6 8 11 8 4 4 6 10 11 10 9 10 10 10 10 10 10 12 14 15 14 12
Wind_Direction
120 137 145 148 149 152 157 160 162 165 167 165 166 164 160 157 152 149 147 149 148 148 146 141 136 132 131 129 125 121 117 112 106 101 100 100 101 100 98 99 97 93 90 87 86 88 87 86 87 89 89 81 75 77 78 79 86 92 93 93 90 87 83 81 80 83 86 87 87 85 81 78 77 77 76 74 73 73 73 72 71 70 73 72 66
124 137 147 149 150 152 157 162 163 165 167 167 167 165 162 158 155 151 150 150 150 151 147 142 138 135 133 130 126 121 118 112 108 106 105 105 104 103 102 101 98 96 93 88 86 87 87 87 87 90 91 83 78 81 83 81 88 95 95 95 93 90 87 84 82 82 86 86 86 86 83 79 77 77 75 74 72 70 70 69 69 68 69 70 69
126 134 148 150 149 151 158 162 165 167 167 168 168 166 163 159 157 153 153 152 152 153 147 143 140 137 134 130 125 122 119 114 112 111 109 107 106 105 104 102 101 100 96 90 86 86 86 86 86 89 90 85 85 86 87 87 91 97 98 100 102 100 94 91 86 84 88 87 85 86 83 79 75 75 74 74 72 68 68 67 68 69 70 71 69
125 134 148 150 149 152 158 163 167 168 168 169 168 167 164 162 159 156 155 153 154 153 147 146 143 138 136 132 126 123 121 118 115 113 111 110 109 109 108 106 106 103 98 93 89 86 84 84 85 86 87 86 89 89 92 94 96 103 106 111 113 111 109 106 98 90 88 86 86 82 78 74 71 72 72 74 72 68 68 66 65 64 64 67 65
127 138 145 146 149 154 160 165 168 169 169 168 167 168 166 164 161 158 155 154 154 152 149 147 143 138 138 135 130 127 126 121 117 116 115 113 114 113 112 112 109 105 101 97 92 89 83 81 82 82 85 87 89 90 97 103 105 111 114 115 113 112 113 112 109 104 96 85 81 80 80 76 71 71 71 71 66 65 70 68 65 62 59 62 63
131 136 137 139 144 154 162 165 169 170 169 169 168 168 166 165 162 159 157 155 154 152 151 148 142 139 140 139 133 131 129 125 120 120 121 120 119 116 117 117 112 108 106 102 96 91 85 82 80 79 81 84 88 89 101 112 114 116 114 111 106 106 108 106 108 112 113 97 84 86 86 82 76 74 75 71 62 64 75 74 70 66 64 65 65
131 135 134 136 142 155 163 164 168 169 170 170 169 168 165 164 162 160 158 156 154 154 153 150 145 144 143 141 136 134 135 132 125 126 128 126 123 121 123 120 116 114 111 106 101 94 90 87 82 80 80 81 85 89 105 118 120 119 112 105 100 98 100 102 95 98 120 110 98 93 80 80 79 74 76 75 71 73 78 80 78 73 70 70 68
131 137 135 137 147 159 162 163 166 169 169 168 168 166 164 164 163 161 159 157 154 153 152 150 149 148 146 142 140 138 142 139 132 134 132 128 128 127 126 122 122 121 117 110 103 99 93 88 82 81 80 79 84 90 106 122 125 122 110 99 89 81 74 72 61 66 91 80 97 97 79 80 79 73 76 79 80 80 78 80 82 77 73 72 71
134 136 135 136 148 160 161 162 165 167 165 165 166 164 164 163 162 162 159 158 153 151 151 150 150 150 148 144 138 135 141 144 139 137 136 134 131 128 128 128 128 126 122 114 106 101 96 89 82 80 79 78 83 94 107 121 129 127 109 93 85 80 75 72 69 76 83 83 95 96 86 86 82 79 80 83 85 84 80 79 81 80 77 77 77
137 136 134 136 150 162 161 162 163 164 164 163 164 163 164 163 162 162 160 158 152 152 152 148 148 150 150 142 135 131 136 146 146 140 143 143 132 132 136 132 131 133 129 124 116 106 98 91 84 81 81 77 79 95 108 115 128 129 113 100 97 93 88 80 71 77 85 90 93 90 88 89 88 86 84 86 87 83 80 82 84 82 80 80 80
139 136 135 141 154 162 161 162 163 163 164 163 163 162 163 162 162 161 161 159 154 155 153 146 144 147 148 140 136 135 135 146 151 147 150 145 136 143 145 139 143 145 135 127 116 106 101 95 93 89 85 80 76 92 110 116 125 131 122 113 107 96 84 71 64 77 88 87 83 82 86 89 91 90 86 86 86 84 83 88 87 83 81 80 80
136 136 141 147 157 161 161 163 163 164 164 162 162 162 162 160 160 160 162 161 157 156 154 147 141 143 144 140 141 139 135 143 151 151 150 146 148 156 152 146 149 143 129 122 115 113 115 108 106 98 90 86 82 98 115 120 125 131 126 116 103 82 67 65 71 85 90 86 84 85 86 86 88 88 86 85 88 88 85 87 88 85 84 82 82
130 138 147 149 157 161 161 161 163 165 164 163 163 163 162 159 160 160 161 160 156 156 155 149 143 143 143 144 145 144 141 143 148 152 151 152 160 165 159 150 145 138 130 126 125 126 123 116 115 104 96 96 95 109 122 124 125 127 119 107 86 70 66 69 79 90 91 88 87 88 88 88 87 87 87 87 88 89 86 85 87 87 86 83 82
127 138 146 145 156 160 161 162 163 164 164 164 164 163 161 160 162 161 159 156 154 154 152 147 144 143 144 146 148 149 148 149 152 156 159 161 166 168 159 150 146 143 136 131 132 132 126 126 125 103 98 108 108 117 127 129 126 123 113 101 81 68 67 74 85 90 90 90 89 89 91 90 89 90 89 90 88 87 86 85 87 87 85 84 83
128 135 142 145 156 158 160 162 163 163 164 164 164 164 162 162 161 161 158 154 154 154 150 145 146 147 147 148 150 152 152 155 161 162 162 164 164 162 154 152 150 144 138 133 131 131 133 129 117 100 99 112 113 115 127 131 124 117 107 93 78 71 68 77 91 94 91 92 91 91 93 93 93 93 92 92 90 87 87 86 85 84 83 84 85
133 139 143 149 154 156 159 161 163 163 164 164 165 165 164 163 161 161 158 156 157 155 154 152 153 153 150 151 154 157 154 156 164 164 163 166 165 157 152 155 151 142 140 133 125 124 131 119 107 105 106 111 110 109 125 131 122 109 96 83 75 74 77 85 96 95 92 92 90 91 95 97 96 94 94 93 90 87 86 86 85 84 84 83 83
139 144 146 150 151 155 158 160 165 164 165 166 166 166 164 164 163 163 160 159 158 158 158 157 160 159 154 154 157 160 160 163 168 166 165 171 172 163 152 152 151 146 142 138 129 126 127 119 117 117 111 111 107 104 120 130 117 98 86 81 77 77 80 87 94 92 91 92 90 91 93 95 95 93 94 93 92 90 87 86 87 86 85 83 81
144 145 145 148 150 154 155 161 166 162 165 166 166 167 165 165 165 164 162 161 160 160 160 159 163 164 160 158 160 164 166 170 171 169 170 174 177 174 164 157 158 158 157 156 142 136 131 122 127 126 115 110 104 102 114 121 111 98 92 89 87 87 86 86 90 90 91 92 90 93 95 93 93 93 93 92 92 91 88 86 86 85 82 82 81
148 145 144 149 152 153 154 160 163 161 164 165 167 169 167 166 166 166 164 163 163 163 162 161 164 166 166 164 164 168 173 177 175 176 176 176 181 183 181 178 171 173 181 165 148 148 136 124 131 133 122 111 105 105 111 117 112 105 100 95 89 85 85 90 93 92 93 93 94 99 101 96 93 92 92 92 92 90 87 85 84 82 81 81 80
151 149 148 153 155 155 158 160 161 163 163 162 169 171 170 169 167 168 167 166 164 165 166 164 166 167 169 168 167 170 175 179 178 182 183 181 185 188 192 196 187 189 193 166 155 155 142 131 135 139 132 116 109 110 114 116 113 105 97 91 86 78 79 90 94 93 94 95 98 102 102 101 97 94 94 93 91 89 87 85 84 82 81 81 80
153 154 155 158 160 161 164 164 164 164 162 161 166 168 169 168 166 168 166 166 167 167 167 164 167 169 171 171 171 172 173 174 172 175 180 182 188 195 198 202 201 202 197 170 162 162 156 140 131 142 143 125 115 116 118 116 114 109 100 93 88 87 92 96 96 97 97 95 94 95 96 99 99 95 95 93 90 90 89 86 85 83 80 81 80
159 161 163 164 164 168 170 168 167 164 161 159 161 164 166 164 165 167 165 167 168 168 167 166 170 172 172 171 171 174 172 169 168 168 173 180 187 194 198 205 208 205 197 176 170 175 167 145 133 144 149 137 124 122 122 120 117 111 103 96 88 97 110 108 105 106 102 94 88 90 92 95 97 96 94 93 91 89 89 88 85 83 81 80 80
167 168 170 172 170 172 174 171 169 165 161 158 158 163 163 163 165 165 164 166 167 167 165 165 170 172 170 170 171 172 171 167 165 166 168 173 179 185 191 202 205 199 195 184 179 182 173 154 145 145 153 149 133 127 126 120 111 101 90 82 80 102 120 118 114 111 107 99 90 92 96 100 99 96 94 92 91 87 87 87 85 85 84 82 81
173 172 171 175 175 173 175 173 169 165 161 157 156 162 162 162 165 164 163 165 165 162 161 164 169 171 172 174 175 170 169 165 161 161 160 162 166 173 182 186 189 190 190 188 182 180 177 166 162 161 163 156 144 144 143 134 114 95 78 77 95 115 120 115 112 109 110 108 99 95 96 101 103 97 95 92 90 89 88 90 90 88 85 82 80
177 175 172 176 180 175 173 174 171 166 164 159 153 157 160 160 163 161 162 165 163 158 161 167 171 175 178 180 179 173 169 168 167 163 157 156 161 169 178 177 183 193 189 188 182 178 177 175 181 176 162 161 167 177 182 193 180 124 84 108 131 129 117 111 111 114 115 111 107 103 97 98 102 99 95 92 90 89 89 90 92 90 85 84 81
177 178 173 169 167 165 169 172 170 168 165 157 148 153 159 160 162 160 162 166 166 164 164 169 176 180 181 182 180 172 169 170 172 163 154 157 164 170 175 170 175 194 186 181 184 184 179 181 199 185 163 176 190 189 189 197 188 169 148 133 141 134 121 116 114 116 117 114 113 109 104 103 101 97 95 96 93 90 89 84 85 85 82 80 78
178 164 136 122 134 157 169 163 160 162 139 127 139 155 163 156 155 160 165 170 169 167 169 174 181 181 176 181 182 174 171 172 172 164 156 159 166 170 174 168 171 188 183 178 192 193 183 185 200 194 182 192 202 197 193 200 189 168 159 143 149 143 128 122 118 113 113 119 119 114 110 107 98 89 87 95 98 94 92 88 84 81 78 78 77
154 107 98 140 162 168 172 164 151 130 92 112 141 155 161 154 151 160 168 172 173 169 173 183 186 182 178 184 187 179 172 170 171 170 163 163 168 174 181 184 186 193 191 191 197 195 192 192 199 201 196 203 210 206 200 206 200 185 180 157 151 151 134 127 125 118 114 120 123 119 113 108 102 95 91 93 96 94 92 92 91 89 86 84 79
101 100 149 173 174 166 160 157 149 125 112 137 154 155 160 160 154 161 167 170 174 165 168 185 188 183 181 184 187 180 173 170 172 175 173 172 174 180 183 187 196 199 196 200 196 194 202 199 205 207 198 210 217 212 210 205 193 192 188 158 166 173 141 128 128 122 117 119 122 121 117 111 104 99 96 94 96 99 95 94 95 94 90 85 74
99 116 162 171 172 163 147 145 159 149 135 145 157 166 167 164 162 166 166 164 171 160 161 184 192 189 180 177 183 183 178 174 174 176 177 178 179 184 181 181 195 197 192 201 197 195 204 201 208 208 201 218 217 205 204 198 184 174 176 191 197 178 147 132 125 125 125 124 123 122 119 115 107 103 102 101 105 105 101 101 101 94 85 81 70
117 132 151 166 166 156 148 148 169 167 147 143 153 172 171 166 171 169 167 166 170 165 166 185 193 193 182 175 183 186 180 173 174 177 178 180 179 179 177 182 194 196 196 203 202 195 198 203 205 204 209 214 200 187 187 186 185 178 195 220 189 139 141 138 126 127 128 118 118 120 118 115 114 112 109 107 106 102 103 105 104 96 85 80 75
135 157 152 165 155 144 156 163 171 157 139 139 150 173 172 169 176 172 167 170 176 173 172 183 187 188 181 176 182 184 179 172 177 180 178 181 173 169 181 196 198 198 202 201 202 194 194 205 203 206 226 206 177 169 174 180 192 194 196 196 160 122 133 136 129 127 123 115 113 117 120 123 120 113 109 108 105 101 104 107 104 99 90 79 77
146 169 158 160 149 137 155 168 174 152 135 141 158 172 161 157 173 177 171 169 178 177 172 179 183 187 183 178 179 180 180 178 181 176 172 175 165 173 191 199 201 197 195 192 195 198 203 210 202 209 216 172 177 173 173 181 191 189 167 140 129 134 133 130 130 129 127 124 120 118 123 127 126 121 115 109 106 108 109 109 105 97 85 73 71
159 167 160 159 157 147 159 172 177 161 145 151 167 175 156 149 163 171 168 166 174 174 169 176 180 184 184 181 179 180 182 184 183 172 169 175 169 186 198 200 203 196 189 185 186 196 215 216 202 214 179 153 171 180 179 184 178 154 141 113 103 120 129 126 130 132 131 131 132 133 131 127 129 130 124 114 111 112 111 107 101 93 84 73 69
173 171 153 153 162 154 170 181 180 171 158 158 168 179 169 158 159 159 161 163 171 170 163 172 177 178 178 178 179 180 181 184 182 173 176 182 179 192 200 200 201 190 183 184 186 193 212 213 196 192 174 160 163 166 165 173 162 131 121 84 90 114 127 124 129 135 132 132 140 141 136 134 133 131 130 125 117 109 104 100 93 90 90 83 75
172 173 151 147 157 156 179 187 178 170 158 162 167 175 177 171 163 159 158 162 174 172 163 170 174 175 176 175 176 177 179 183 180 177 184 187 185 193 197 197 197 187 188 190 191 202 210 201 187 154 147 158 165 157 144 148 141 125 112 79 91 121 130 130 133 135 133 136 143 143 140 136 129 128 129 124 115 108 101 94 91 89 90 90 85
162 169 155 149 153 163 185 185 177 170 154 160 166 168 174 172 165 154 151 160 174 175 169 172 171 175 180 177 178 177 179 184 183 185 193 192 189 192 195 198 194 188 194 188 188 222 230 198 175 156 138 151 160 148 133 139 126 114 108 101 115 126 129 135 135 132 134 138 142 148 144 130 124 128 125 122 117 111 103 93 88 86 86 85 85
162 171 162 148 152 168 183 184 178 171 151 154 162 164 163 163 162 151 148 157 163 169 175 175 170 176 179 176 179 180 183 187 186 193 202 198 191 186 191 200 197 199 200 189 195 223 229 210 178 170 147 143 145 128 129 142 122 111 113 114 124 125 126 134 134 132 136 136 139 149 145 129 128 129 127 128 119 110 104 94 83 73 73 71 78
161 172 167 150 153 165 174 180 178 168 154 156 160 161 160 159 159 152 149 153 153 166 179 178 174 176 175 172 175 180 188 190 186 194 201 205 202 187 188 198 199 208 205 195 211 213 211 217 190 185 163 135 130 130 141 145 130 128 128 120 123 125 128 136 137 131 131 134 135 138 135 128 128 125 127 131 123 118 106 93 84 70 70 71 71
161 169 168 154 153 158 162 169 173 170 162 159 159 160 164 161 157 155 152 152 155 166 173 177 181 178 174 172 173 178 186 188 187 191 199 208 208 194 190 198 202 207 204 200 199 200 213 215 191 186 166 136 137 144 147 149 137 127 120 116 121 125 127 133 137 132 131 133 132 133 131 129 130 124 122 122 121 121 104 100 104 86 76 75 70
168 173 169 157 154 157 162 165 169 171 163 164 169 169 170 164 161 162 159 156 158 160 159 169 183 182 179 176 174 178 182 186 187 189 196 205 206 199 194 198 207 204 195 194 183 184 209 207 183 173 147 140 154 148 149 152 135 119 112 109 110 114 124 128 135 141 135 126 126 134 132 127 127 129 128 122 120 119 106 111 122 103 79 76 74
174 181 172 161 158 158 164 167 170 172 166 169 176 178 177 170 168 164 159 158 158 158 157 166 179 180 181 178 178 182 183 186 190 192 198 206 209 206 204 207 212 208 196 179 159 186 212 197 166 158 138 155 175 156 152 150 133 131 129 112 99 103 117 124 131 143 137 127 125 130 135 136 139 144 137 120 114 115 109 110 118 117 95 84 84
178 190 180 169 164 158 162 170 173 175 171 171 175 179 178 173 171 161 154 155 152 157 163 169 173 172 175 177 179 184 184 185 189 193 199 208 211 209 213 218 213 212 209 177 152 188 219 195 159 157 149 169 187 164 160 153 137 143 136 122 129 117 116 132 142 154 150 138 130 140 147 141 141 147 141 126 119 114 110 109 107 114 109 98 97
179 195 190 173 167 162 162 167 172 174 171 172 172 169 165 159 156 152 153 152 148 153 156 164 169 169 172 174 176 182 185 187 186 191 203 207 209 210 216 217 207 210 215 188 166 189 218 200 170 169 162 170 180 163 167 163 143 142 131 114 146 138 139 168 158 165 167 148 146 178 167 144 146 149 141 130 119 111 110 109 102 107 111 104 98
177 184 191 180 171 165 163 162 167 170 167 169 169 159 153 146 142 145 153 147 142 150 153 159 169 173 176 175 176 181 187 191 188 192 206 209 209 211 215 208 201 204 206 202 183 175 188 197 187 178 173 177 171 159 166 163 148 142 130 121 143 151 150 156 146 154 173 152 151 168 155 147 156 149 133 125 119 116 118 114 105 105 109 105 99
157 152 180 201 189 172 166 163 164 168 166 167 166 157 152 150 147 151 157 151 146 159 166 167 172 176 178 178 180 183 188 194 194 198 207 211 208 208 210 204 197 202 203 204 192 168 166 190 193 176 181 188 169 159 165 162 155 144 135 137 151 134 144 158 156 135 150 145 153 157 147 148 156 149 136 127 127 129 125 118 110 107 109 109 113
131 147 175 197 219 195 173 164 162 164 165 165 164 160 157 158 157 159 165 162 158 167 173 173 174 174 175 179 183 188 194 198 198 204 212 215 213 209 206 201 200 208 208 202 196 171 164 181 192 175 177 184 169 160 165 168 168 151 138 136 104 125 149 160 152 133 134 134 151 153 145 139 138 141 136 122 123 130 126 122 119 119 115 111 120
160 175 177 177 199 208 183 166 160 161 162 163 165 167 163 160 161 162 164 164 162 164 167 172 173 172 176 179 181 187 193 198 201 207 213 216 214 212 208 204 204 203 206 205 192 173 166 169 179 169 160 168 173 167 164 172 175 161 152 145 122 129 145 148 141 147 143 118 143 140 123 101 93 113 124 122 128 135 137 136 131 126 119 111 115
174 180 180 174 178 192 189 169 158 159 161 161 166 172 169 163 164 161 158 156 152 153 163 170 172 177 179 175 177 184 188 197 210 214 217 213 205 206 206 208 205 196 197 200 186 178 171 163 169 165 153 161 172 173 170 173 174 170 168 155 139 135 135 134 135 141 135 128 149 134 118 106 83 94 111 124 134 136 142 141 129 123 120 120 124
175 179 182 179 174 182 185 169 159 161 162 164 168 172 170 166 165 161 158 154 143 142 157 166 173 179 175 176 180 181 186 198 207 209 211 205 199 200 200 204 203 198 199 192 178 180 172 162 165 163 160 165 170 177 179 174 171 174 175 162 151 146 134 120 131 136 128 119 139 141 138 131 106 102 118 133 137 132 136 135 124 121 125 129 135
170 174 178 183 182 183 181 169 164 165 163 165 168 170 170 167 165 162 161 160 148 142 150 161 178 177 167 178 179 162 181 202 205 207 206 197 195 197 195 201 203 201 204 191 175 185 176 162 162 158 160 167 172 182 184 175 171 172 174 167 161 165 159 145 153 150 138 127 133 142 146 142 136 139 146 148 143 138 137 134 125 126 134 140 147
Height
761 761 762 763 766 767 769 770 772 773 774 776 777 779 780 782 783 784 785 787 788 790 791 793 794 795 797 798 799 800 802 803 804 805 805 807 807 808 809 810 810 811 811 811 812 812 813 813 813 813 813 813 812 812 812 812 812 812 812 813 813 814 814 814 814 815 815 816 816 817 818 819 820 820 821 821 820 820 820 821 820 820 818 819 825
761 762 763 764 767 767 770 771 773 774 775 776 777 780 781 783 784 785 786 788 790 791 792 794 795 796 798 799 800 802 803 804 805 806 807 808 809 810 810 811 811 812 813 813 814 814 815 814 815 815 815 815 814 814 814 814 813 813 814 814 815 815 816 816 816 816 817 817 818 819 819 821 821 822 822 822 821 821 822 822 822 822 822 823 827
761 763 764 765 767 768 770 771 773 774 776 777 778 780 782 784 784 786 787 789 790 792 793 794 796 797 799 800 801 803 804 805 806 807 808 809 810 811 812 813 813 814 814 815 815 816 816 816 816 816 817 816 816 816 815 815 814 815 815 816 816 817 818 818 818 818 818 819 820 820 821 822 822 823 823 823 823 823 823 823 824 825 826 827 829
761 764 765 766 768 769 771 772 774 774 776 777 779 781 783 784 785 787 788 790 791 793 794 795 797 798 800 801 802 804 805 807 808 809 810 811 812 812 813 814 815 815 816 816 817 817 817 817 818 817 818 818 818 817 817 816 816 816 816 817 817 818 818 819 819 819 820 821 821 821 822 823 824 824 824 825 825 825 825 825 826 827 827 828 829
763 765 766 767 768 770 771 773 774 775 777 778 780 782 783 785 786 788 789 791 792 794 795 796 798 799 801 802 803 805 806 808 809 810 811 812 813 814 815 816 816 817 817 818 818 819 819 819 819 819 819 819 819 819 818 817 817 817 817 818 818 819 820 820 820 820 821 822 822 823 824 825 826 826 826 826 826 827 827 827 827 827 828 829 830
764 766 767 768 769 771 772 773 775 776 777 779 780 782 784 786 787 789 790 792 793 795 796 798 799 800 801 803 805 806 808 809 810 811 812 813 814 815 816 817 817 818 819 819 820 820 820 820 820 820 820 820 820 820 819 818 819 818 819 819 820 821 821 821 821 822 822 822 823 824 825 826 827 828 828 827 827 827 827 827 828 828 829 830 830
765 767 769 768 770 771 772 774 775 777 778 780 781 783 785 787 789 790 791 793 794 796 797 799 800 801 802 804 805 807 809 810 811 812 813 814 815 816 817 818 818 819 820 820 821 821 821 821 821 821 821 821 821 820 820 820 820 820 820 820 821 822 822 823 823 824 823 824 825 826 826 826 828 829 829 829 829 829 829 829 829 830 830 831 832
766 768 769 769 771 771 773 774 776 777 779 781 782 784 786 788 790 791 792 794 795 797 799 800 801 802 804 805 806 808 809 811 812 813 814 815 816 817 818 819 820 820 821 821 822 822 823 823 823 823 823 822 822 821 821 821 821 821 821 821 822 822 823 824 825 825 826 826 826 827 826 826 828 829 830 830 831 831 830 830 830 831 831 832 833
767 768 769 771 771 772 774 775 777 778 780 782 783 785 787 789 791 792 793 795 797 798 800 801 803 804 805 806 808 809 810 812 813 814 815 816 817 818 819 820 820 821 822 823 823 823 824 824 824 824 824 823 823 822 822 822 822 823 823 823 823 823 824 824 825 826 827 827 826 827 827 828 829 830 831 831 832 832 832 832 832 832 833 834 834
767 769 771 771 772 773 774 776 778 779 781 782 784 786 788 790 791 793 795 796 798 799 801 802 804 805 806 808 809 810 811 812 813 815 816 817 818 819 820 821 822 822 822 823 824 824 825 825 825 825 825 824 824 824 823 823 824 824 824 824 824 825 825 826 826 827 829 828 828 829 829 830 831 831 832 832 832 833 833 833 833 833 834 835 835
768 770 771 772 773 774 775 777 778 780 782 783 786 787 789 791 793 794 796 797 799 801 802 804 805 806 808 809 810 811 812 813 814 815 817 818 819 820 821 821 822 823 823 824 824 825 825 826 826 826 826 825 825 825 825 825 825 825 825 825 826 826 826 827 827 828 831 830 830 831 831 832 832 833 833 833 833 834 834 834 834 834 835 835 836
769 770 771 773 774 775 776 778 779 781 783 785 787 788 790 792 794 796 797 799 800 803 804 805 806 808 809 810 811 812 813 814 815 816 818 819 820 821 821 822 823 823 824 824 825 826 826 826 827 827 827 827 827 826 826 826 826 826 826 826 826 826 827 827 828 830 832 832 832 832 833 833 833 834 834 835 834 835 835 835 835 835 836 836 837
770 770 771 774 775 776 777 779 781 782 784 786 788 789 792 793 795 797 799 800 802 804 805 806 807 809 810 811 812 813 814 815 816 817 818 819 820 821 822 823 823 824 824 825 826 826 827 827 828 828 828 828 828 827 827 827 827 828 827 827 827 827 827 828 829 831 833 833 834 834 834 835 835 835 835 836 836 836 836 836 836 836 837 837 837
770 771 772 775 776 778 778 780 781 783 785 787 789 791 793 794 796 798 800 801 803 805 806 807 808 810 811 812 813 814 815 816 817 818 819 820 821 822 822 823 823 825 825 826 827 827 828 828 828 829 829 830 829 829 828 829 829 829 828 829 828 828 828 829 831 833 834 835 835 836 836 836 837 837 837 837 837 837 837 837 837 837 838 838 838
771 771 774 776 777 779 780 782 782 785 786 788 790 792 794 795 797 799 800 802 804 805 806 808 809 811 811 813 814 815 816 817 818 818 820 821 821 822 823 824 824 825 826 827 828 828 829 829 830 830 830 831 830 830 830 830 830 830 830 830 830 830 830 830 833 834 835 836 836 837 837 838 838 838 838 838 839 838 838 838 838 839 839 839 839
771 773 775 777 778 780 782 783 784 786 787 789 791 792 795 796 798 799 801 803 804 806 807 809 810 811 812 813 815 816 817 818 819 819 821 821 822 823 824 824 825 826 827 828 829 829 830 830 831 831 831 831 831 831 831 831 831 831 831 831 831 831 831 832 834 835 836 837 837 838 838 839 839 839 839 839 840 840 840 839 840 840 840 840 840
772 774 776 778 779 781 783 785 786 787 789 790 791 793 795 796 798 800 801 803 804 807 808 809 811 812 813 814 815 816 817 818 819 820 822 822 823 824 824 825 826 827 828 829 830 830 831 831 832 832 832 832 833 833 832 833 833 833 833 833 832 832 833 834 835 836 837 838 838 839 839 840 840 840 840 840 840 840 841 841 841 841 841 841 841
773 775 777 779 780 782 784 785 787 788 790 791 793 794 795 797 799 800 802 803 805 807 808 810 811 812 814 814 816 817 818 819 820 821 822 823 824 825 825 826 827 828 829 829 831 831 832 832 833 833 833 834 834 833 833 834 834 834 834 834 834 834 835 836 836 837 838 839 839 840 840 841 841 841 841 841 841 841 842 842 842 842 842 842 842
774 776 777 780 780 782 783 785 787 788 790 791 793 794 796 797 799 801 802 804 806 807 809 810 811 813 814 815 817 818 819 819 820 821 822 824 824 825 826 827 828 828 829 830 832 833 833 833 834 834 834 835 835 834 834 835 835 835 836 836 836 836 836 837 838 838 839 840 841 841 842 842 842 842 842 842 842 842 842 843 843 843 843 843 843
774 776 777 780 781 782 783 785 786 787 789 790 792 794 796 798 799 802 803 805 807 808 809 811 812 813 814 816 817 818 819 820 821 822 823 824 825 826 827 827 828 829 830 831 833 833 834 834 834 835 835 836 836 836 835 836 836 836 836 836 837 837 837 838 838 839 840 841 842 842 843 843 843 843 843 843 842 843 843 843 843 843 844 844 844
774 775 777 779 780 782 782 784 785 787 788 789 792 794 796 798 800 802 804 806 807 809 810 812 813 814 815 816 818 819 820 821 821 822 823 824 825 826 827 828 828 829 831 832 833 834 835 835 835 835 836 836 837 837 837 836 836 837 837 837 837 838 839 839 839 841 841 842 843 843 844 844 844 844 844 844 843 844 844 844 844 844 845 845 845
773 775 776 777 778 780 781 783 784 786 788 790 792 794 797 799 801 803 805 807 808 810 811 813 814 814 816 817 818 819 820 821 822 823 824 825 826 827 828 828 829 830 832 833 834 835 836 836 836 836 836 837 837 837 838 837 837 837 837 837 838 838 840 840 840 842 842 843 844 844 845 845 846 846 845 845 845 845 845 845 845 845 845 845 846
771 773 775 775 777 778 780 782 783 786 788 790 792 795 798 800 802 804 805 807 808 810 812 813 814 815 816 817 818 819 820 821 822 823 824 825 826 827 828 829 830 831 832 834 835 836 836 837 836 837 837 837 838 838 838 838 838 838 838 838 838 839 841 840 841 842 843 844 845 845 846 847 847 847 847 846 846 846 846 846 846 846 846 846 847
769 771 772 774 776 777 779 781 784 786 788 791 793 796 798 801 803 805 806 807 809 810 812 814 814 815 816 816 817 818 820 821 822 823 824 825 826 827 829 829 830 831 833 834 835 836 837 837 837 837 837 837 838 839 839 839 839 839 839 839 840 841 842 841 841 843 844 845 846 847 847 848 848 848 848 848 848 848 847 848 847 847 847 847 848
767 769 771 774 776 778 781 783 784 786 788 790 793 797 799 802 805 806 807 807 809 811 812 813 814 815 815 816 817 818 820 820 821 822 823 824 826 827 829 830 831 832 833 834 835 837 837 837 837 837 838 838 838 839 839 840 840 840 839 840 841 842 843 842 842 844 844 845 846 847 848 849 849 849 850 850 849 849 849 849 849 849 848 849 849
766 769 772 775 778 781 784 786 787 787 790 793 795 797 800 803 806 807 808 808 809 810 811 812 813 814 815 816 817 818 819 820 821 822 823 824 825 827 829 830 832 833 834 835 836 837 837 838 838 838 838 839 839 839 839 839 839 840 840 841 842 843 843 843 843 844 845 846 847 848 849 849 850 850 851 851 851 851 851 850 850 850 850 850 850
766 770 775 779 781 782 785 788 791 794 797 798 798 798 801 804 806 808 808 808 809 810 811 811 812 814 815 816 816 818 819 820 821 822 823 824 825 827 829 831 832 834 835 835 837 837 838 838 838 838 839 839 839 839 839 839 839 840 840 840 842 844 844 844 844 845 846 847 848 849 850 850 851 851 851 852 852 852 852 852 852 852 852 852 852
768 773 778 779 779 780 783 786 791 797 801 802 800 801 803 805 807 808 808 808 810 811 811 811 812 814 815 816 817 818 819 820 821 821 822 823 824 826 829 831 833 835 835 836 837 837 838 838 838 838 839 839 839 839 839 839 840 840 841 840 841 844 844 845 845 846 847 848 849 850 851 851 851 852 852 853 853 853 853 853 853 853 854 854 853
770 774 777 777 778 781 785 787 791 795 798 799 800 802 804 806 807 809 809 810 810 811 812 812 812 814 815 816 817 818 819 820 820 821 821 822 824 826 828 831 833 835 835 836 837 837 837 837 838 838 839 839 838 839 839 839 840 840 841 840 843 845 845 846 846 847 848 849 850 851 851 852 852 853 853 853 854 854 854 854 855 855 855 855 855
772 773 774 775 778 783 786 788 790 792 793 795 797 800 803 807 809 810 810 811 811 812 812 812 813 814 815 817 817 818 819 820 821 821 822 823 824 826 828 830 832 835 835 836 836 837 837 837 837 837 838 838 838 840 840 840 840 841 841 842 846 846 844 845 847 847 848 849 850 851 852 852 853 854 854 854 855 855 855 855 856 856 856 856 856
772 773 772 774 778 783 785 787 788 790 792 793 796 798 801 806 809 809 810 811 811 812 812 813 814 815 816 817 818 818 819 820 821 822 822 823 825 826 828 830 832 835 835 836 836 836 836 836 836 837 838 838 838 839 840 840 840 841 842 844 847 847 845 845 847 847 849 850 850 852 852 853 854 855 855 855 855 856 856 856 857 857 857 857 857
771 772 772 774 779 783 784 785 787 790 793 795 796 795 797 803 807 808 809 810 811 811 813 814 814 815 816 817 818 819 820 820 821 822 823 824 825 827 829 831 833 834 835 836 836 836 836 836 836 837 838 838 838 838 839 840 840 842 844 845 846 847 846 846 847 848 849 850 851 852 853 854 855 855 856 856 856 857 857 857 857 857 857 857 857
771 771 772 774 779 782 783 784 787 791 794 795 795 794 795 801 805 806 807 809 810 811 812 814 814 815 816 817 819 819 820 821 821 822 823 824 825 827 828 830 832 833 834 835 835 836 836 836 837 837 838 838 838 838 838 840 842 843 844 845 846 848 848 848 848 849 850 851 852 853 853 854 855 856 856 857 857 857 857 858 858 858 858 858 858
771 770 772 774 778 781 782 783 786 789 791 793 793 793 795 799 803 805 808 809 809 810 811 812 814 814 815 817 819 819 821 822 822 822 824 825 825 827 829 830 832 833 834 835 835 835 836 836 837 837 837 838 838 838 839 841 843 842 842 845 846 848 850 850 849 850 851 851 852 853 854 855 855 856 857 857 858 858 858 858 858 858 858 858 858
769 769 772 774 777 779 780 781 783 786 789 790 792 794 796 798 802 805 807 808 808 808 809 811 812 813 815 817 818 819 821 822 823 823 824 824 825 827 829 830 831 833 834 834 834 835 836 836 836 836 837 838 838 837 839 841 841 840 842 846 846 846 850 851 851 851 851 851 852 854 854 855 855 856 857 858 858 858 859 859 859 859 858 859 859
767 769 772 775 778 779 779 779 782 786 788 790 792 794 796 798 801 803 806 807 806 806 807 810 812 813 815 817 818 819 820 822 823 824 825 825 825 827 828 830 831 832 833 833 834 835 835 835 835 835 836 837 838 838 840 840 840 842 844 848 848 848 850 852 851 851 852 852 853 853 855 855 856 857 858 858 859 859 859 859 859 859 859 859 859
767 768 772 775 778 778 777 778 782 785 788 790 792 793 795 798 801 803 805 805 805 806 807 809 811 813 814 816 817 819 820 821 823 824 825 826 826 827 828 829 831 831 832 832 833 834 834 834 835 835 836 838 839 840 841 841 842 844 846 850 850 850 851 851 851 851 851 852 853 853 855 856 856 857 858 859 860 860 860 860 860 860 860 860 860
766 767 771 775 776 776 776 778 780 783 786 789 791 793 795 797 800 802 804 805 806 808 808 809 811 813 814 815 816 818 820 821 822 823 824 826 827 827 827 828 830 830 831 832 833 833 833 834 834 835 837 839 840 842 843 842 842 844 847 851 851 850 851 850 850 851 851 852 853 854 855 856 857 857 859 860 860 861 861 861 861 861 861 860 860
765 766 769 772 775 775 776 778 780 782 786 788 790 792 794 797 799 801 803 806 809 810 809 810 811 813 814 815 816 817 818 819 821 821 823 826 827 826 827 828 829 830 831 832 834 833 833 835 836 837 838 839 840 841 842 842 843 844 847 850 850 850 851 851 851 851 852 852 853 854 854 857 858 858 860 860 860 861 861 861 861 862 862 861 861
764 765 768 770 773 774 775 778 780 782 785 787 789 792 794 795 797 799 802 805 809 810 811 811 811 812 814 815 816 816 816 817 819 820 822 825 825 825 826 827 828 829 831 833 834 833 833 836 838 837 838 838 840 840 842 843 844 846 848 850 851 851 852 851 851 852 852 853 853 855 856 857 859 859 861 861 861 862 862 862 862 863 862 862 862
764 764 766 768 770 772 774 777 778 781 783 786 788 790 792 794 796 798 800 803 806 808 811 811 810 811 813 814 815 815 816 816 817 819 821 823 824 824 825 826 827 828 830 832 833 832 834 837 836 836 837 838 839 840 842 843 845 847 849 851 852 852 852 852 852 852 853 854 855 856 857 858 859 860 861 862 862 862 862 863 863 864 863 863 863
764 763 764 766 768 770 773 775 777 779 782 784 786 788 790 792 794 796 798 801 803 806 809 810 810 811 812 814 814 814 815 816 817 818 820 821 822 823 823 824 826 827 829 831 832 833 834 836 836 836 837 836 837 840 842 843 845 846 849 851 853 854 853 853 853 854 854 855 856 857 858 858 859 860 861 862 862 862 863 863 864 864 864 864 864
767 763 763 765 766 768 771 773 775 777 780 783 785 787 789 791 793 795 797 799 801 803 806 808 809 810 811 812 812 812 813 815 817 818 819 820 821 822 822 823 824 825 827 830 833 833 833 835 836 836 836 836 837 840 842 843 844 846 847 851 853 854 855 854 855 855 855 856 858 857 857 858 860 861 861 861 862 863 864 864 865 865 865 865 865
767 765 763 764 766 768 770 772 774 776 779 782 784 786 788 790 792 794 796 797 799 801 804 806 808 809 810 811 811 811 812 814 815 816 817 819 819 820 821 822 823 824 826 829 831 833 833 833 835 836 836 836 837 840 842 842 844 845 846 849 851 853 856 855 854 856 856 858 859 856 857 859 860 861 861 862 863 864 865 865 865 866 866 866 867
761 764 765 767 769 769 771 772 774 776 778 781 783 785 787 790 792 794 795 796 798 800 802 804 806 807 808 810 811 811 812 813 814 815 816 817 818 819 820 821 822 823 825 828 831 834 836 835 835 836 836 836 837 839 841 842 843 844 844 846 849 852 854 853 854 856 857 858 859 858 858 860 861 861 862 862 863 864 865 866 866 866 867 867 868
757 765 771 773 773 773 772 773 774 775 778 780 782 784 786 788 790 792 793 795 797 799 800 802 804 806 808 809 811 812 812 813 813 814 815 816 818 819 820 821 822 823 824 827 830 832 836 836 835 836 836 836 837 838 839 841 842 843 844 845 847 848 849 851 853 856 857 859 860 860 859 860 860 861 861 862 863 864 865 865 866 867 867 868 868
756 764 771 774 776 776 773 772 773 774 777 779 780 783 785 787 788 790 791 793 796 797 799 801 803 806 808 809 810 811 812 812 813 814 815 816 817 818 819 820 821 823 824 826 828 830 833 835 835 836 836 837 838 838 839 841 841 842 843 844 845 846 847 849 850 853 856 859 860 860 860 860 860 860 861 862 863 864 864 865 866 867 868 868 869
754 758 764 768 773 777 775 772 772 773 775 778 779 782 784 785 787 789 791 793 795 797 799 801 803 806 808 809 810 811 811 812 814 814 815 816 817 818 819 820 821 822 824 825 827 829 832 833 833 834 836 837 838 838 839 840 840 841 843 845 846 846 847 847 848 850 853 856 858 858 859 859 859 859 860 862 863 864 864 865 866 867 868 869 869
752 755 759 762 766 773 775 772 771 773 775 777 779 781 783 784 786 788 790 792 794 796 798 800 802 804 806 808 809 810 811 812 813 814 815 816 817 817 818 819 820 822 823 825 826 828 830 831 832 833 835 836 837 838 838 839 840 841 843 844 845 845 846 847 848 849 850 854 857 857 858 859 859 859 860 862 863 864 864 865 866 867 868 869 870
750 753 758 761 762 767 772 772 771 772 774 776 779 781 782 784 785 787 789 791 794 796 798 800 802 804 805 807 808 809 810 811 813 814 815 816 816 817 818 819 820 822 823 824 825 827 829 830 831 833 833 834 835 836 836 838 840 841 842 844 844 845 846 847 848 849 850 852 854 856 857 859 859 860 862 863 864 864 865 866 866 868 869 870 870
749 752 758 762 764 766 769 771 771 772 773 775 778 780 782 783 784 786 788 790 793 796 797 799 801 803 804 805 805 807 809 811 812 813 814 815 816 817 818 819 820 822 823 824 825 826 828 829 830 832 832 832 833 834 835 837 838 840 841 842 843 843 844 846 847 848 849 851 853 855 857 858 860 861 862 863 864 864 865 866 867 868 869 870 870